Theta_e
348 345 347 350 348 346 349 350 348 348 350 350 349 351 350 352 356 357 359 361 361 363 363 362 361 360 361 361 360 360 358 356 359 360 360 360 359 359 358 358 358 358 356 357 356 354 354 354 353 354 356 356 357 358 359 359 358 358 357 356 357 358 358
349 346 344 346 346 346 347 348 348 348 349 349 350 351 351 351 354 357 359 360 361 362 362 362 362 361 361 361 360 361 360 357 358 360 359 358 357 358 357 357 358 357 357 356 356 355 355 356 354 354 357 356 356 358 359 359 359 358 357 354 355 358 359
350 349 347 347 346 346 348 348 347 347 348 349 349 351 351 351 353 356 359 360 361 362 362 361 361 360 360 360 358 360 361 359 358 359 358 357 357 358 356 357 357 357 358 357 357 357 357 357 356 356 358 356 355 357 359 359 359 358 358 358 357 358 360
354 354 348 348 349 348 350 349 347 347 348 349 349 350 350 350 352 355 358 360 361 361 361 361 361 360 360 360 359 361 361 361 359 358 357 358 357 356 356 357 357 357 357 357 357 357 356 356 357 357 357 355 354 356 357 359 358 357 358 359 359 358 359
357 362 356 351 352 351 350 349 348 347 347 349 349 349 350 349 350 354 357 359 359 359 360 360 360 359 360 360 360 360 360 361 360 357 356 357 356 355 355 356 356 356 356 356 356 356 356 356 356 357 357 355 355 356 357 358 358 357 357 358 358 358 359
355 361 360 355 353 350 348 348 347 346 347 349 349 349 350 350 350 352 354 356 357 357 358 358 357 357 359 359 358 357 358 359 360 359 357 356 355 355 356 356 355 355 356 356 355 356 358 358 357 357 356 356 356 356 357 358 358 358 357 358 358 357 357
353 353 355 357 356 351 348 347 346 346 347 348 349 348 348 349 349 350 351 353 354 354 355 355 354 356 358 358 356 357 357 358 360 360 358 357 357 356 356 356 355 354 355 356 355 356 359 358 357 357 356 354 353 354 355 356 356 356 357 358 358 357 358
356 354 352 354 355 353 351 348 345 346 347 348 349 348 347 347 348 348 349 351 351 351 352 352 352 354 356 356 355 356 357 357 358 359 358 359 358 357 356 357 356 355 354 355 355 356 357 357 356 357 356 353 352 352 354 356 356 356 357 358 359 359 358
362 364 358 354 352 351 350 348 346 346 346 346 347 347 347 346 346 346 347 349 348 349 351 350 349 351 353 354 352 353 356 356 357 358 357 358 358 357 357 357 357 356 355 355 354 355 356 356 355 356 357 355 354 354 356 357 357 357 358 359 360 360 359
362 364 366 362 354 350 350 349 349 349 348 348 348 347 347 345 345 346 346 347 348 349 350 348 348 351 352 352 351 351 353 355 355 355 356 356 357 357 356 356 356 356 356 355 354 354 356 355 354 356 357 357 357 358 358 359 360 359 358 359 360 360 360
359 360 365 366 359 355 355 355 355 351 350 352 350 346 347 346 345 346 347 348 348 348 349 347 347 350 351 351 352 351 351 352 353 353 354 354 355 355 355 355 356 356 356 355 355 355 355 355 355 356 358 357 358 360 361 360 361 360 358 358 360 360 359
358 358 360 364 365 362 359 359 358 352 349 353 352 347 348 347 345 347 349 348 348 348 349 348 348 350 351 351 352 351 351 351 350 351 351 352 352 352 353 354 355 356 356 356 355 355 354 355 355 356 358 358 358 361 362 360 359 360 359 359 359 359 359
358 360 359 361 364 362 360 359 360 355 350 352 354 349 348 348 348 350 349 348 349 349 348 349 349 350 351 352 352 352 351 351 350 350 349 350 349 349 350 352 354 355 355 356 356 354 354 354 354 356 358 359 357 359 361 360 359 359 359 359 358 358 359
358 360 360 361 360 359 360 360 361 360 357 358 359 355 352 350 350 351 350 350 350 350 350 350 350 351 351 352 353 353 352 351 351 349 348 348 347 346 346 349 352 353 353 355 356 355 354 353 353 355 357 358 357 358 359 360 360 360 360 360 358 359 359
352 353 355 359 361 362 361 362 364 364 363 364 364 361 358 356 354 353 353 353 354 354 354 353 351 352 353 353 354 354 353 352 351 350 349 347 346 346 345 345 349 350 351 352 353 352 353 352 352 353 355 356 357 358 358 358 360 360 361 361 359 359 359
351 350 351 353 358 362 361 361 363 363 363 364 363 362 362 360 360 359 359 360 360 360 361 360 357 356 356 357 357 355 354 353 352 351 350 349 347 345 344 344 346 347 348 350 350 349 349 350 350 353 354 355 357 357 356 357 358 358 360 361 360 360 361
351 351 349 349 351 355 357 358 360 360 361 362 360 361 361 361 362 362 363 364 363 363 363 363 362 361 360 361 361 359 356 355 354 353 351 351 350 348 346 346 346 346 346 347 347 346 346 346 348 350 351 353 355 356 354 354 355 356 357 358 359 359 359
353 352 350 350 351 350 350 353 357 358 359 359 359 358 358 360 362 362 362 363 363 363 364 364 364 361 360 362 360 358 357 355 354 353 352 353 354 353 351 350 351 350 349 347 346 346 346 346 347 348 348 349 353 355 354 352 353 354 354 354 355 357 357
354 352 351 351 351 349 349 350 351 353 354 353 355 356 357 358 359 360 361 361 362 362 363 363 362 359 360 361 358 356 356 355 353 353 353 354 355 355 355 354 354 354 353 352 351 349 349 349 349 350 349 348 350 352 352 352 352 352 352 352 352 354 356
354 354 351 350 350 350 351 351 349 350 349 347 348 351 352 352 353 355 357 358 359 360 360 361 359 357 357 358 356 355 353 352 353 355 357 356 354 355 356 356 356 355 355 357 357 355 353 351 351 352 352 351 350 351 351 351 352 352 352 353 353 355 356
352 353 352 351 350 348 349 350 349 349 348 348 348 350 349 350 351 353 355 356 357 357 357 357 355 355 354 354 354 353 351 352 354 352 354 357 357 356 357 358 359 357 357 359 359 355 352 350 350 350 352 351 350 349 350 351 352 352 352 353 353 353 353
351 351 350 350 349 348 349 349 348 348 347 346 348 350 349 350 350 351 351 353 355 354 353 352 353 352 352 351 351 351 351 354 353 349 349 355 356 355 356 357 358 358 359 360 357 353 351 352 352 351 351 351 349 349 350 350 351 352 351 351 350 350 350
350 348 348 348 348 349 349 348 347 348 346 346 348 349 348 348 347 347 348 350 352 352 350 350 350 350 351 350 350 351 353 353 353 349 349 351 354 355 355 356 357 358 359 359 355 351 353 354 352 351 352 351 350 349 349 348 350 351 350 350 350 349 350
347 347 347 347 347 348 348 347 347 347 346 346 347 347 347 346 346 347 348 348 350 351 350 350 350 350 350 350 349 351 353 353 353 352 351 350 351 352 354 355 356 356 356 356 354 352 354 355 351 347 347 347 346 346 346 345 346 348 349 350 349 349 350
346 345 345 345 346 346 346 346 346 345 346 346 346 346 346 346 346 347 348 348 348 349 349 350 350 350 349 348 348 350 351 351 352 353 353 351 348 349 352 355 354 352 352 353 351 350 352 353 347 343 342 341 340 340 341 341 341 343 346 347 347 349 350
344 344 344 344 345 345 345 345 344 344 344 344 344 345 345 346 346 347 347 347 346 346 347 347 348 349 349 348 349 350 350 349 349 349 351 351 349 349 351 351 350 349 349 349 348 347 348 347 343 341 339 337 336 336 336 337 336 337 340 342 344 347 349
341 341 341 342 342 342 342 342 341 341 341 342 343 343 344 345 345 345 345 345 344 344 344 344 345 346 346 348 348 348 348 347 345 345 346 346 346 346 345 344 344 345 345 345 344 343 342 340 339 338 336 333 333 332 332 332 333 334 335 336 339 342 344
340 339 339 340 340 340 339 339 338 338 338 340 340 342 342 342 342 342 342 342 343 343 342 341 342 342 343 344 344 344 344 344 343 344 343 342 342 341 340 340 341 341 340 340 340 339 337 336 335 333 329 327 327 328 328 329 330 330 331 331 332 334 337
339 338 337 336 337 336 335 335 335 335 336 337 338 340 340 339 339 339 339 339 340 341 340 339 338 337 339 339 339 340 341 341 341 341 340 339 338 338 337 337 337 337 336 336 335 334 333 332 331 328 326 325 325 325 326 326 326 327 327 326 325 326 330
336 336 334 333 334 334 333 333 333 333 333 334 336 337 338 338 338 338 337 336 337 338 338 337 336 335 336 336 335 336 337 337 337 337 337 337 336 336 336 335 334 333 334 334 334 333 332 331 330 329 328 327 326 326 325 325 325 326 325 324 323 323 323
335 334 333 332 332 333 332 332 332 331 331 332 333 335 336 336 336 336 335 335 335 335 336 336 336 336 335 333 333 334 334 335 335 335 335 335 334 334 334 334 333 333 334 334 334 334 334 333 332 332 331 331 330 329 328 327 327 328 328 327 325 322 321
334 332 332 331 331 331 331 330 329 329 330 330 331 332 333 333 333 334 334 334 334 334 334 334 334 335 334 332 332 332 331 331 331 331 332 332 332 333 334 334 334 334 334 334 334 334 333 333 333 333 332 332 330 329 329 330 330 329 329 330 328 324 322
334 332 331 331 330 329 329 328 328 328 328 328 328 329 330 330 331 331 331 332 333 333 333 333 333 332 332 332 331 330 330 329 327 327 328 329 328 327 330 333 333 332 332 332 333 334 334 333 333 333 333 331 330 329 330 331 328 326 326 328 327 323 319
334 332 331 330 330 329 329 328 327 327 327 327 327 327 327 328 328 328 328 330 332 332 332 332 331 329 329 330 330 330 329 329 328 328 328 328 326 324 327 330 329 328 328 328 329 332 333 332 331 331 331 331 331 330 330 328 324 321 320 321 320 317 314
333 332 330 330 329 328 328 327 327 326 326 326 326 326 327 327 327 327 328 329 331 331 331 330 329 328 328 328 328 328 328 327 329 330 328 326 325 325 326 327 326 325 324 325 325 327 328 329 328 327 327 329 330 330 327 324 320 318 317 316 314 313 313
331 331 330 329 328 327 327 327 327 326 325 325 325 326 327 327 326 326 327 327 328 330 330 329 328 328 327 327 326 327 327 326 327 329 327 326 324 323 322 323 323 322 322 321 322 323 324 325 324 324 324 325 326 326 324 320 318 317 315 314 313 313 313
330 329 327 327 327 327 326 326 326 326 325 325 324 325 325 326 326 326 326 326 327 328 329 329 329 327 327 327 326 326 327 326 326 326 326 325 324 323 321 320 319 319 318 318 319 319 320 320 320 320 321 321 320 320 319 317 316 315 314 314 313 313 314
329 327 326 326 327 326 327 326 325 324 324 324 324 323 324 325 325 325 325 326 327 328 328 328 328 328 328 327 327 326 327 326 326 325 326 325 325 324 323 321 319 318 317 316 316 317 317 317 317 317 318 318 317 317 316 315 315 314 314 313 312 313 315
Wind_Speed
15 15 14 10 11 13 12 13 16 18 19 19 20 20 19 21 21 20 22 22 21 21 20 20 19 18 17 16 15 15 16 16 14 14 14 13 12 13 13 12 12 12 12 12 13 12 11 11 12 12 12 10 10 9 9 8 8 7 6 6 5 5 4
12 13 14 12 12 13 15 16 17 18 20 19 20 21 19 21 22 21 22 23 21 21 20 20 20 19 19 19 17 15 16 16 15 15 14 12 12 13 13 12 12 12 11 11 12 12 11 11 11 11 11 11 10 10 9 8 8 7 6 6 6 4 3
10 10 11 12 12 12 14 17 18 19 21 20 20 21 19 21 23 22 22 22 22 21 20 21 20 19 19 20 19 17 15 15 15 14 14 13 13 14 13 12 12 12 10 10 12 12 12 12 12 11 11 11 11 10 9 8 8 8 7 7 6 5 5
9 8 10 11 12 12 12 16 18 19 22 21 21 21 20 21 21 22 23 22 22 22 21 21 20 19 19 19 19 17 16 15 15 15 14 13 14 14 13 12 12 12 11 11 11 11 11 12 12 12 11 10 11 11 10 9 8 8 8 7 7 6 6
8 3 6 10 11 9 11 16 18 20 22 22 22 21 21 22 21 21 22 22 22 22 22 21 20 19 19 19 17 17 17 16 15 15 14 14 14 13 13 13 12 12 12 12 11 10 11 12 12 12 12 11 10 10 10 9 9 8 8 8 7 6 6
7 2 3 6 10 10 11 17 21 21 21 23 22 21 21 22 21 21 22 22 22 22 22 21 21 20 20 19 18 17 17 17 16 15 14 15 15 14 14 13 12 12 12 12 12 11 11 12 12 12 12 12 11 10 10 10 9 9 9 8 7 6 6
7 6 7 6 8 10 11 17 22 21 20 22 22 21 22 22 22 21 21 22 22 22 22 22 21 21 20 20 19 19 19 18 17 16 15 15 15 15 14 14 13 13 12 12 12 12 12 12 11 12 12 12 11 11 11 10 10 9 9 9 8 7 7
7 8 11 9 7 7 8 13 21 21 19 21 22 22 22 22 22 22 22 23 23 22 22 22 21 21 20 19 19 18 19 19 18 17 16 15 15 15 13 13 13 12 12 12 12 12 13 12 12 11 11 11 11 10 10 10 10 9 9 9 8 8 8
6 4 8 10 9 7 5 10 18 21 20 20 21 22 22 22 22 22 22 24 24 24 23 22 22 24 22 20 20 19 18 19 18 18 17 16 16 15 14 14 13 12 12 12 12 12 12 12 12 12 12 11 11 10 9 10 11 10 9 9 9 9 8
7 4 4 6 10 11 9 11 13 15 16 18 20 21 21 21 22 22 23 24 24 24 24 22 22 25 24 22 21 20 19 19 18 18 18 17 16 16 15 15 14 13 12 12 12 11 11 12 12 12 13 11 10 11 10 10 11 10 9 9 9 9 9
9 7 5 4 7 11 12 11 9 9 8 10 17 22 20 19 20 20 22 25 23 23 23 22 22 24 25 23 21 21 20 20 19 18 18 17 17 16 16 15 15 14 13 12 12 12 12 12 12 12 13 12 11 11 11 10 10 10 10 9 8 8 8
8 7 6 5 6 8 10 9 8 10 9 7 12 21 20 18 17 17 22 25 23 22 22 22 23 25 25 23 22 21 21 21 19 19 19 18 17 16 15 15 15 14 13 12 12 13 13 11 12 13 13 12 11 11 12 12 11 10 10 9 8 8 8
7 6 5 5 6 7 10 10 8 12 15 13 12 18 19 17 15 16 23 25 22 23 23 21 22 25 25 23 22 22 21 21 20 19 18 18 17 16 15 16 16 15 13 12 12 12 14 13 12 13 14 13 12 11 11 12 11 10 11 9 9 9 9
3 3 3 6 9 10 12 13 11 12 15 13 12 15 16 17 16 18 23 25 24 24 24 22 20 21 24 23 21 22 22 21 20 20 18 18 18 17 16 17 20 18 15 14 13 12 14 14 13 12 13 13 12 10 11 12 12 12 12 11 10 10 11
2 2 5 8 11 12 13 13 11 12 14 14 14 14 14 13 13 15 19 21 21 21 22 22 20 19 22 22 21 21 22 21 20 19 18 16 17 18 17 14 18 21 19 17 16 14 15 16 15 13 13 13 13 13 11 12 13 13 12 13 13 12 9
8 9 9 7 7 7 10 12 13 12 14 15 14 15 15 14 12 13 13 14 16 18 19 19 18 17 19 20 20 20 21 21 20 19 18 15 13 16 17 13 12 17 20 20 18 16 17 18 16 15 15 14 14 14 11 10 12 13 13 13 13 12 9
10 12 12 10 7 5 5 6 11 13 13 15 15 14 15 14 14 13 11 11 13 14 15 15 15 17 19 19 17 15 15 15 14 15 18 15 10 12 15 15 11 10 13 16 17 16 15 15 15 16 16 15 15 14 11 11 12 12 14 14 14 13 10
13 12 12 12 9 5 6 6 2 4 9 11 12 13 14 14 14 13 11 11 12 12 12 12 12 16 20 19 15 12 12 10 6 4 2 3 3 5 10 12 10 8 7 9 12 13 11 11 12 12 12 12 14 13 12 12 13 13 14 15 15 14 12
9 9 9 7 5 5 4 3 6 5 2 3 2 2 5 7 7 8 9 10 11 11 10 10 10 14 18 18 14 10 11 13 8 3 2 2 7 9 10 11 12 11 8 6 8 11 11 12 12 11 11 10 8 12 14 13 13 14 15 15 15 15 15
4 7 9 8 7 4 3 6 4 1 5 4 1 3 4 4 4 1 3 5 7 8 9 8 8 10 12 13 11 8 9 12 12 12 12 15 19 17 15 15 16 16 13 11 9 8 8 8 8 7 8 7 4 11 15 13 12 13 13 14 14 14 14
5 6 8 9 11 9 5 4 5 8 10 7 6 7 5 3 2 1 1 0 1 4 6 5 7 10 10 8 7 8 11 13 15 15 15 18 23 22 18 18 18 17 16 15 12 5 4 6 8 6 4 1 5 9 11 10 10 10 10 11 12 12 12
5 7 8 9 11 10 9 8 7 9 10 6 5 9 10 7 3 1 3 3 3 3 3 4 7 11 11 8 7 11 15 16 18 17 16 18 22 23 20 17 15 15 14 13 11 8 6 7 8 8 4 1 4 6 7 7 7 7 8 8 8 8 8
6 8 9 10 11 11 10 10 10 10 10 7 5 8 10 7 3 2 4 6 5 4 3 5 7 7 7 7 8 13 18 18 18 19 21 21 20 18 17 14 12 12 12 9 7 9 13 11 6 6 7 7 8 8 7 6 5 5 6 6 6 6 4
8 10 11 10 11 11 10 10 9 9 10 11 10 10 10 9 6 3 2 1 2 1 1 3 5 4 6 7 6 9 13 15 14 15 18 18 15 14 13 11 10 9 7 6 6 8 13 14 9 10 12 12 11 10 9 7 5 4 5 4 4 4 3
6 11 12 11 11 11 9 8 8 8 10 12 13 12 10 9 8 6 6 6 5 5 6 3 1 2 3 4 3 5 8 11 11 12 13 13 13 14 14 11 9 6 4 5 8 10 11 13 11 13 15 14 13 12 11 10 8 5 3 2 2 2 3
7 11 12 12 12 11 9 9 9 11 12 12 11 10 9 9 10 10 11 13 13 13 12 10 7 6 6 4 3 4 6 8 10 11 12 13 14 14 13 11 9 9 9 11 14 15 14 14 14 15 15 14 14 14 13 12 11 9 6 5 4 4 5
9 12 11 12 13 13 12 11 11 11 12 12 11 11 11 13 15 14 14 15 16 15 14 13 12 11 10 10 8 8 9 12 12 12 13 14 15 14 12 11 12 13 15 17 19 20 19 16 16 16 16 15 16 16 15 14 13 12 10 9 8 6 6
11 9 8 11 14 13 12 12 12 12 13 13 13 12 14 18 19 16 15 15 15 14 15 17 17 17 17 17 17 16 15 15 16 15 15 16 17 17 17 16 16 19 21 22 22 22 21 19 18 18 18 19 18 18 18 16 15 14 13 12 11 10 10
11 8 8 10 11 11 13 15 16 16 16 15 14 14 16 19 19 17 17 17 14 14 16 17 18 21 23 22 20 19 18 17 17 17 17 18 18 18 19 19 19 21 22 23 23 23 22 21 20 20 21 20 19 19 19 18 17 17 16 15 14 14 13
9 7 10 13 13 15 19 18 16 16 16 15 15 14 14 15 16 15 16 15 13 13 15 15 17 20 21 21 20 21 20 20 19 18 18 19 19 19 18 18 18 20 19 19 20 21 21 19 19 18 18 17 16 17 18 18 19 18 16 15 14 13 13
7 8 12 14 15 17 19 17 15 15 15 14 14 13 13 13 13 13 14 13 12 12 13 13 14 16 17 17 18 18 18 18 18 17 17 18 18 17 16 15 15 16 15 15 15 16 16 15 14 14 14 13 12 13 13 14 16 17 15 14 12 11 10
8 9 9 10 11 12 14 14 14 13 12 12 11 11 12 12 11 12 12 12 11 11 11 11 12 12 14 15 16 16 16 17 17 17 17 17 16 16 15 14 13 12 12 12 12 12 13 12 12 12 12 11 11 12 12 13 13 12 10 10 10 9 8
7 7 10 11 11 10 11 12 12 12 12 11 9 9 10 9 9 9 10 10 11 10 9 10 10 10 11 12 12 12 13 14 14 15 16 16 15 14 13 13 12 12 12 10 8 7 9 10 10 10 10 10 10 11 12 13 12 10 8 8 8 8 7
7 8 11 13 13 11 11 11 12 13 12 11 9 9 9 8 8 7 8 9 10 9 8 7 7 8 9 8 8 11 11 10 11 15 17 16 15 13 12 12 11 12 14 12 10 8 8 10 9 8 9 10 10 10 12 13 12 10 8 6 6 7 7
6 8 11 12 13 13 13 12 11 12 13 12 10 10 12 14 12 10 10 9 8 8 7 6 5 6 6 7 10 12 10 7 10 15 17 17 18 17 15 14 12 13 14 13 12 11 11 12 14 12 12 12 10 11 14 14 11 10 8 7 7 8 9
7 7 9 12 13 14 14 12 12 13 14 14 12 12 14 15 14 13 13 12 8 5 6 4 4 5 6 8 9 8 4 5 11 16 17 16 16 17 17 15 13 13 14 14 13 12 11 12 14 13 12 13 14 13 14 13 11 9 8 7 8 9 10
11 8 9 12 13 13 12 12 12 13 15 15 14 13 12 12 12 12 11 10 9 6 4 3 3 4 6 6 5 3 4 7 14 17 16 15 13 12 13 14 13 12 13 12 11 11 11 12 12 11 11 12 14 14 12 12 11 9 7 7 8 9 10
11 10 10 11 12 13 12 11 12 14 15 15 16 16 15 12 11 11 10 10 10 8 5 4 4 3 5 5 3 2 6 11 14 15 13 12 11 9 9 10 10 10 10 10 9 9 9 9 10 10 11 11 11 11 11 10 8 7 6 7 8 7 8
Wind_Direction
192 184 180 180 175 174 171 175 176 165 165 168 167 177 177 164 163 164 165 171 170 169 172 172 172 173 173 175 176 177 178 176 175 178 178 178 178 174 176 180 179 178 178 178 181 185 185 182 179 178 178 183 181 179 182 175 173 177 177 190 189 170 186
200 185 179 179 177 176 171 175 179 167 170 176 170 178 181 163 162 166 166 171 172 171 173 173 175 174 175 177 176 178 180 178 180 181 179 182 182 179 182 183 182 183 180 179 179 180 182 179 176 175 175 180 184 182 183 181 178 181 184 188 190 188 201
208 190 177 173 176 180 169 172 183 176 173 179 175 179 179 164 164 168 168 171 173 174 175 176 178 177 177 180 177 180 182 178 180 183 182 182 181 184 186 183 184 185 181 180 178 177 179 179 177 177 177 181 186 185 185 188 183 183 187 187 189 200 208
212 192 176 172 172 177 165 167 185 183 176 180 180 180 176 167 168 169 170 175 175 175 178 178 179 179 178 178 177 181 184 180 182 185 185 183 183 185 184 183 187 185 183 183 181 181 181 180 180 181 183 186 188 186 187 194 192 187 192 194 195 206 212
213 181 176 178 166 171 167 168 187 189 179 179 183 182 175 172 175 173 173 178 177 178 180 179 180 180 179 179 179 182 184 185 187 188 188 186 186 187 184 186 189 186 186 185 184 185 180 178 182 184 186 189 189 188 189 195 196 191 196 201 200 207 216
202 158 215 193 163 172 173 172 189 194 181 178 181 182 180 178 181 178 176 179 181 181 181 181 182 180 181 183 183 184 184 188 190 190 191 188 185 188 187 189 191 188 187 184 183 184 179 180 186 186 187 190 191 192 192 195 198 196 197 203 207 213 221
188 171 211 213 162 172 177 175 188 194 184 179 180 183 184 184 185 184 179 179 182 182 181 184 184 182 184 186 185 184 184 189 192 191 192 190 187 190 190 189 192 192 191 188 186 185 184 188 191 189 191 193 197 199 194 193 199 201 200 204 212 218 226
183 176 199 201 159 164 177 175 184 192 190 183 178 182 188 187 188 190 183 178 180 183 184 186 184 182 186 187 188 187 185 188 192 193 194 193 192 194 193 191 194 195 193 190 189 190 191 192 194 195 194 194 200 202 197 195 200 204 204 206 212 218 224
172 173 199 189 161 160 188 185 183 190 198 191 177 180 192 191 189 192 186 177 179 182 185 188 186 182 184 188 189 190 191 191 192 194 197 196 196 196 194 193 195 198 199 196 193 194 196 195 195 196 195 197 200 199 201 202 200 206 211 210 213 218 224
171 186 209 189 164 162 187 202 188 183 197 196 177 179 196 194 189 193 185 176 179 182 184 190 187 180 182 188 190 191 193 195 195 196 198 198 199 198 195 193 193 196 202 201 196 195 200 203 201 194 191 197 200 196 201 205 201 207 215 214 217 220 226
172 183 193 196 173 162 173 196 188 166 191 202 173 177 196 197 190 190 178 172 177 180 184 192 186 179 182 188 192 192 193 196 198 199 199 201 202 201 199 195 193 197 202 202 201 198 196 199 202 196 191 196 204 200 202 208 208 210 215 217 220 221 226
170 181 189 187 179 165 165 183 182 164 187 218 178 177 190 195 192 184 167 168 177 180 186 191 185 181 184 188 193 196 197 198 199 200 202 202 203 204 200 192 190 196 200 203 206 201 199 201 201 199 195 199 207 206 207 211 212 215 218 219 222 223 228
157 165 189 186 189 187 174 178 179 172 188 209 195 179 182 189 193 178 165 169 178 181 188 193 187 185 186 189 194 200 202 202 201 203 205 203 205 207 199 190 192 198 199 203 206 203 206 210 204 199 200 204 209 210 212 213 213 216 217 217 223 229 233
97 118 181 193 200 198 181 176 176 173 181 188 176 168 178 192 194 180 170 173 179 181 188 194 193 188 187 190 196 201 205 206 204 206 207 204 207 213 208 196 194 198 200 202 206 206 208 210 208 206 205 206 209 210 213 215 215 216 217 216 223 233 241
129 225 229 214 200 184 168 163 161 160 160 154 144 141 155 177 184 176 171 172 174 178 186 195 198 192 188 193 200 202 205 208 207 209 213 209 204 213 223 212 195 194 199 203 206 209 210 209 211 215 211 207 209 208 209 217 219 220 223 224 226 230 238
176 207 221 235 234 197 166 155 150 150 151 148 140 134 139 150 155 159 162 162 166 175 186 193 197 196 192 196 206 207 205 206 206 207 214 217 207 209 225 233 213 198 197 198 202 208 213 208 202 204 207 208 210 207 204 210 216 221 226 227 228 229 230
192 197 201 215 241 263 251 188 158 153 155 157 153 145 143 146 148 151 156 160 165 176 188 190 194 200 197 197 208 215 212 212 213 208 209 214 214 207 216 231 239 223 204 200 204 210 215 210 203 204 207 204 200 200 202 208 214 221 223 222 223 224 224
194 184 186 196 200 218 269 283 253 157 155 159 161 158 156 155 157 160 164 170 175 181 187 186 193 205 206 205 210 216 215 218 247 297 260 224 223 200 202 217 233 243 231 215 214 216 217 217 219 220 219 208 192 187 202 216 216 218 219 217 219 222 222
182 156 155 167 175 184 204 257 307 329 71 115 81 104 143 143 149 166 174 181 191 193 189 189 193 203 213 219 218 209 197 199 217 285 359 187 213 206 197 205 217 225 229 224 224 227 225 223 226 227 230 230 199 184 200 212 207 207 212 214 219 222 223
107 114 123 120 109 105 133 165 187 93 93 135 140 38 48 50 42 26 189 187 197 198 198 207 209 208 218 223 218 208 191 183 197 212 200 199 211 213 203 204 211 215 214 210 214 237 253 245 243 245 242 239 174 166 185 193 191 196 205 209 214 218 221
95 112 118 110 104 100 92 115 130 109 105 128 142 119 118 144 144 1 339 237 216 199 200 218 229 226 225 217 202 202 195 188 193 197 190 196 210 215 210 205 207 209 210 206 202 219 293 271 253 264 285 51 116 143 158 167 176 187 197 206 212 219 227
133 132 122 106 101 104 102 88 83 102 115 129 150 137 132 144 164 273 281 259 249 230 228 253 246 231 227 223 204 190 193 203 205 194 187 196 206 212 211 206 203 206 210 208 199 195 214 227 230 241 255 116 158 161 142 146 171 187 200 210 217 225 234
116 114 105 95 88 85 85 83 80 94 111 120 144 140 129 127 138 237 256 250 248 240 241 251 245 231 220 215 194 177 185 203 207 194 190 195 197 203 209 207 202 205 207 201 188 189 201 204 197 198 194 180 179 172 148 144 167 190 207 215 221 220 210
100 101 95 93 97 93 82 77 74 74 85 91 89 89 100 109 112 116 128 270 281 242 193 233 237 229 217 206 173 154 175 194 198 190 189 190 189 196 209 208 200 202 203 187 153 155 189 201 178 140 146 153 156 157 150 138 136 169 200 213 227 219 197
72 91 96 96 97 94 82 78 83 74 67 72 76 79 92 105 105 105 102 86 71 72 71 68 101 140 187 203 177 152 169 188 194 189 185 184 182 189 201 202 191 179 155 145 136 132 165 192 171 128 126 133 134 136 136 127 116 120 149 164 177 166 144
57 78 90 96 97 95 89 81 83 83 71 62 65 77 90 95 89 85 85 80 72 67 62 61 71 86 96 115 164 176 162 165 173 171 166 162 161 167 177 177 164 149 128 121 124 129 145 164 153 130 125 128 125 120 116 112 105 98 95 97 116 137 129
74 79 86 97 99 97 95 89 84 83 76 66 64 71 76 78 77 76 80 82 77 70 67 69 74 78 85 97 113 125 125 129 134 133 132 134 136 137 135 130 127 129 128 125 126 127 129 134 134 128 122 121 119 114 106 101 97 94 90 87 93 107 111
44 54 66 88 98 102 101 98 92 86 79 72 68 69 73 77 78 75 76 80 80 79 76 74 77 82 87 90 95 99 104 111 114 112 107 110 115 115 110 108 110 112 114 116 119 120 119 119 121 117 108 103 102 101 98 96 94 93 91 87 88 90 94
18 20 46 71 90 95 82 74 73 75 75 70 68 73 80 84 83 77 72 72 78 87 85 79 81 87 88 86 85 88 93 96 99 100 97 97 101 102 100 101 103 104 106 107 110 113 114 113 112 107 100 96 95 94 93 91 89 88 86 84 83 83 87
22 28 63 70 66 62 62 63 67 70 68 62 61 68 78 83 84 83 80 77 78 84 86 85 87 88 85 81 79 82 86 89 90 92 95 96 96 97 98 99 100 101 102 103 108 112 113 112 112 108 104 103 99 94 91 87 84 80 78 77 74 75 79
69 60 70 74 69 64 64 65 67 66 65 63 59 59 65 72 82 89 91 91 89 87 87 89 91 92 90 87 85 84 86 88 87 87 90 93 94 96 99 102 104 107 107 107 112 115 114 115 116 115 115 117 112 103 96 89 80 72 68 64 59 61 73
101 97 95 91 88 88 85 81 76 73 73 74 71 66 62 61 69 81 89 94 93 90 92 93 92 96 100 99 98 97 97 97 93 86 83 84 85 85 86 88 94 102 106 108 114 119 121 125 127 126 125 124 122 118 112 100 87 78 77 78 67 58 67
81 98 108 105 106 113 112 105 98 91 82 76 77 81 76 68 68 74 81 92 95 90 91 94 94 97 102 104 109 110 105 104 104 93 81 78 79 77 72 71 81 90 88 81 81 103 127 135 138 142 141 136 134 133 123 110 100 92 95 100 89 69 61
76 82 95 101 104 108 107 105 104 101 92 81 79 84 80 71 68 64 60 76 92 91 83 81 87 100 109 113 113 108 103 104 106 95 85 83 87 86 75 70 77 81 78 67 53 57 87 100 93 99 122 136 143 137 124 114 104 92 86 87 79 65 58
92 93 102 108 111 110 106 105 107 105 101 93 80 67 58 51 44 40 43 56 80 95 90 76 71 81 81 71 77 89 102 115 109 98 92 88 86 84 81 81 84 82 78 71 60 57 74 88 82 81 100 120 130 131 126 119 105 91 85 77 67 63 62
126 113 113 113 111 112 112 112 110 104 103 101 85 64 56 50 40 34 37 38 42 72 93 85 81 89 77 65 72 81 97 116 105 101 101 94 85 80 81 83 85 84 79 73 66 64 73 84 84 84 95 103 107 116 123 118 106 96 89 74 64 64 64
148 138 128 120 116 118 120 121 119 109 104 106 102 88 76 63 46 39 40 33 26 39 75 71 71 101 97 84 76 50 41 86 97 97 98 98 92 89 89 84 79 77 74 70 65 63 64 71 76 78 83 89 95 101 104 102 98 94 81 68 68 72 69
149 147 140 133 131 133 133 132 131 124 117 117 119 116 108 92 64 46 40 31 28 38 53 38 28 82 126 131 131 54 64 92 102 101 100 104 107 111 112 103 92 82 72 67 65 61 59 61 63 64 68 75 83 90 92 91 88 82 70 67 71 77 76